Temperature
7 8 8 9 11 12 13 13 13 14 15 14 14 14 15 16 16 16 17 17 18 18 18 18 17 17 16 16 16 16 16 15 15 15 15 15 15 15 15 15 15 15 15 15
7 7 10 11 12 12 12 12 13 14 15 14 13 14 15 16 16 16 17 17 17 18 17 17 17 16 16 16 16 16 16 16 15 15 15 15 15 15 16 16 16 15 15 15
7 9 10 11 11 11 11 12 13 13 13 14 13 13 14 15 16 16 16 16 16 17 17 16 16 15 15 15 15 15 15 15 15 15 15 15 15 15 15 16 16 16 15 15
7 9 10 10 10 11 11 13 13 13 12 11 12 11 14 14 14 14 15 15 15 15 15 15 15 14 14 14 15 15 15 15 15 15 15 15 15 15 15 15 16 16 15 15
7 8 9 9 10 11 11 12 12 12 12 11 12 11 13 14 14 14 14 15 15 14 14 14 14 13 13 13 14 14 14 14 15 15 14 14 14 14 14 14 14 14 14 14
7 8 9 10 10 11 11 11 11 11 10 9 11 11 12 13 14 14 14 14 14 13 13 12 12 12 12 12 13 13 13 14 14 14 14 14 14 14 14 13 13 13 13 13
7 8 9 9 9 9 10 9 8 8 8 9 12 12 13 14 14 13 13 13 13 12 12 12 11 11 11 11 12 12 13 13 13 13 13 13 13 13 13 13 13 13 12 12
7 7 8 9 9 8 9 9 9 9 9 10 12 12 13 13 13 14 13 13 12 12 12 11 11 10 10 11 11 11 12 12 12 12 12 12 12 12 12 12 12 12 12 12
8 7 8 9 9 9 9 9 10 9 10 10 11 12 11 13 12 12 12 12 12 12 11 11 10 10 10 10 10 11 11 11 11 11 11 12 12 11 11 11 11 11 11 11
9 7 8 8 9 9 9 10 9 8 9 10 11 12 11 10 11 11 11 12 12 11 11 10 9 9 9 9 10 10 10 10 10 10 11 11 10 10 10 10 10 10 10 10
9 7 7 8 8 8 8 9 9 9 10 9 10 11 13 11 11 11 11 12 12 11 10 10 9 9 9 9 9 9 9 9 9 9 9 9 9 9 9 9 9 9 9 9
10 8 7 7 8 9 9 9 9 8 9 10 9 10 12 12 12 11 12 12 11 11 10 9 9 8 8 8 8 8 8 8 8 8 8 8 8 8 8 8 8 8 8 8
10 8 7 7 7 8 8 9 10 9 8 9 9 10 12 11 11 12 12 11 11 10 9 9 8 8 7 7 7 7 7 8 7 7 7 7 7 7 7 7 7 7 7 7
10 9 8 8 9 8 8 9 9 9 7 9 10 10 11 11 11 11 12 11 11 10 9 8 8 7 7 7 7 7 7 7 7 6 6 7 7 7 6 6 6 6 6 6
10 9 9 10 10 10 9 9 9 8 9 9 10 11 11 11 11 11 12 11 11 10 9 8 7 7 6 6 6 6 6 6 6 6 6 6 6 5 5 5 5 5 5 5
10 9 9 9 10 10 9 9 9 9 9 10 10 10 11 12 12 12 11 11 10 10 9 8 7 6 6 5 5 5 5 5 5 5 5 5 5 5 5 5 4 4 4 4
9 9 8 8 9 9 8 9 9 9 10 10 9 10 11 11 11 11 11 11 10 9 8 7 6 6 5 5 5 4 4 4 4 4 4 4 4 4 4 4 4 4 3 3
9 9 8 8 8 7 9 10 11 10 10 10 10 11 11 11 11 11 10 10 9 9 8 7 6 5 5 4 4 4 3 3 3 4 3 3 3 3 3 3 3 3 3 2
9 9 8 7 8 8 9 9 10 9 9 10 10 10 11 11 10 9 9 9 8 8 7 6 6 5 4 4 4 3 3 3 3 3 3 3 3 3 2 2 2 2 1 1
9 8 7 7 7 8 9 9 10 10 9 10 10 10 10 9 8 8 8 8 7 7 6 6 5 4 4 3 3 3 3 3 3 2 2 2 2 2 2 1 1 1 1 0
7 7 7 7 7 8 9 9 9 8 8 9 9 9 9 8 8 8 7 7 6 6 5 5 4 4 3 3 2 2 2 2 2 2 2 1 1 1 1 1 0 0 -0 -0
7 7 7 7 7 7 9 9 8 8 9 9 9 9 8 8 7 7 6 6 5 5 5 4 4 3 3 3 2 2 2 2 2 1 1 1 1 1 0 0 -0 -0 -0 -0
8 8 8 8 8 8 9 9 8 8 8 8 8 8 7 7 7 6 6 5 5 5 4 4 3 3 3 2 2 2 2 1 1 1 1 1 0 0 -0 -0 -0 -0 -1 -1
9 9 8 8 9 9 9 8 8 8 7 7 7 7 7 6 6 6 5 5 5 4 4 3 3 3 2 2 2 1 1 1 1 1 1 0 0 0 -0 -0 -1 -1 -1 -1
8 8 8 8 8 9 8 8 7 7 6 6 6 6 6 6 6 5 5 5 4 4 4 3 3 3 2 2 2 1 1 1 1 1 0 0 0 0 -0 -0 -1 -1 -1 -1
7 7 7 7 8 8 7 7 6 6 5 5 5 6 5 5 5 5 5 4 4 4 3 3 3 2 2 2 1 1 1 1 1 1 0 0 0 0 0 -0 -0 -1 -1 -1
Wind_Speed
6 7 12 16 17 10 10 14 14 13 11 14 14 14 12 10 8 8 9 9 9 8 6 5 5 5 5 5 5 5 7 8 7 6 6 6 6 5 5 5 8 11 12 13
5 11 13 14 15 13 10 11 12 8 9 9 10 13 12 11 11 10 9 9 8 6 5 4 4 3 3 4 3 3 4 5 6 5 5 5 4 4 5 5 6 10 10 11
8 6 11 13 14 14 12 10 9 7 6 4 5 9 13 11 10 9 8 7 6 4 5 5 5 4 3 2 2 1 2 2 3 4 3 2 3 3 4 5 7 8 10 10
4 6 10 12 13 13 11 7 5 7 7 5 8 5 11 14 12 11 10 8 7 4 2 2 3 4 4 2 2 1 1 1 1 2 3 4 4 5 6 5 6 7 9 10
4 7 10 12 11 10 4 2 3 5 5 4 7 6 6 11 12 13 10 8 6 4 3 3 4 4 4 4 3 2 2 2 1 0 2 3 4 5 4 4 5 6 7 9
2 2 4 7 6 5 4 4 3 1 2 5 9 8 5 7 11 11 9 7 6 5 5 5 4 4 4 4 3 2 2 2 2 2 2 2 3 4 4 5 5 5 4 5
2 2 1 3 6 5 5 6 4 4 5 6 9 7 5 5 8 10 10 8 7 6 6 6 6 5 5 4 3 1 2 2 2 2 2 3 3 4 5 5 5 5 4 3
5 5 5 4 5 7 8 6 2 4 5 4 5 7 2 7 9 10 9 8 6 6 5 6 6 5 5 5 3 3 2 2 3 3 3 3 3 2 3 4 4 4 3 3
4 4 5 4 2 5 6 5 1 1 2 2 5 5 5 6 8 9 9 8 7 6 6 6 6 6 5 5 5 4 4 4 4 5 4 4 4 3 3 4 3 3 2 2
2 5 4 3 2 1 0 2 3 2 2 3 7 8 8 12 10 9 9 8 7 6 6 6 6 5 5 5 4 4 4 5 5 5 4 4 5 5 4 3 3 3 2 2
3 4 5 4 5 7 4 3 4 3 3 2 2 1 3 13 11 10 8 7 7 6 6 5 5 5 4 4 4 4 5 5 5 5 5 5 5 6 5 4 4 4 3 3
1 3 4 3 2 1 4 5 5 3 3 3 2 1 3 8 9 9 7 7 6 6 5 5 5 4 4 4 4 4 5 5 5 5 5 5 6 6 7 7 7 6 5 5
1 3 5 4 3 3 4 6 6 2 1 2 1 1 2 7 8 7 7 6 5 5 5 5 4 4 4 4 4 4 5 5 5 5 5 6 6 7 7 7 7 8 8 8
2 1 1 2 2 6 6 8 8 5 3 3 3 4 5 6 7 6 6 5 4 5 5 5 4 4 4 4 4 4 5 5 5 5 6 6 7 7 7 7 8 8 8 8
2 0 0 2 2 4 6 8 10 9 7 4 1 2 6 7 7 6 5 4 3 4 5 5 4 4 4 3 4 4 4 4 5 5 6 6 6 6 7 7 8 8 8 9
1 1 1 0 1 2 4 7 9 10 10 8 4 3 1 4 4 4 4 4 4 4 5 5 5 4 4 4 3 4 4 4 5 6 6 6 6 7 7 7 8 8 9 9
1 1 1 1 3 2 5 9 11 9 7 8 9 6 4 4 4 4 3 3 3 4 5 5 4 4 4 4 3 3 4 5 5 6 6 6 6 7 7 7 8 8 8 9
2 1 0 1 2 4 2 3 2 7 8 7 4 2 2 2 2 1 1 2 3 4 5 5 5 5 5 5 4 4 5 5 5 5 6 6 6 6 7 7 8 8 7 8
2 1 1 1 3 4 3 3 2 3 3 5 6 4 2 2 1 0 3 5 4 5 5 5 5 5 5 5 5 5 5 5 5 5 5 5 6 6 7 7 7 6 7 7
1 1 1 2 2 2 3 4 2 0 1 2 3 3 3 3 2 2 4 6 6 6 5 5 5 5 5 4 5 6 5 6 5 5 5 5 6 6 7 7 6 6 6 6
2 2 3 3 3 2 2 4 2 1 2 4 4 4 4 2 2 3 4 5 5 5 5 5 5 4 4 5 5 6 6 5 5 5 5 6 6 6 6 6 5 5 5 5
4 3 3 3 3 3 3 3 1 3 4 5 5 5 4 3 3 3 3 3 5 5 5 5 5 5 5 5 5 6 6 6 6 6 6 6 5 5 5 6 5 4 5 5
4 3 2 3 2 3 3 4 5 4 4 4 4 4 3 1 1 2 2 3 4 5 5 5 5 6 5 4 5 7 6 6 7 6 6 6 6 5 5 5 5 4 3 4
2 1 1 2 2 5 5 4 4 4 4 4 4 4 3 1 1 0 2 3 4 5 5 6 6 6 5 5 5 6 7 7 7 7 6 5 5 5 4 3 3 3 3 3
1 1 2 3 2 3 4 4 4 5 5 4 4 3 2 2 2 1 2 3 4 5 5 6 6 6 6 6 6 7 7 8 7 7 6 5 5 5 4 4 3 4 3 3
3 3 3 2 1 1 4 5 5 4 3 3 3 3 2 2 3 2 2 3 4 5 6 6 6 6 7 7 7 7 7 8 8 7 6 5 4 4 4 4 4 7 5 6
Wind_Direction
183 195 201 199 204 213 201 204 209 208 192 197 215 225 229 225 207 223 235 236 230 220 205 181 175 177 175 183 195 195 189 191 186 185 191 197 207 208 210 215 215 211 207 205
181 214 211 205 208 225 238 222 213 198 187 191 218 230 230 224 209 210 225 235 230 214 191 176 163 161 166 172 181 203 202 192 187 187 190 193 194 207 210 208 220 224 218 212
201 206 204 205 204 211 228 231 215 185 149 197 240 244 229 222 212 211 217 233 248 226 199 177 167 155 134 129 151 201 229 207 185 175 176 182 193 205 211 214 217 221 225 225
222 222 199 198 205 203 216 224 221 180 162 204 205 243 223 207 204 210 213 214 221 219 195 157 135 126 120 99 61 21 325 301 190 173 177 188 205 216 222 222 221 217 219 224
197 202 194 196 201 200 190 176 183 191 202 243 201 226 258 183 193 200 198 195 187 174 153 118 97 95 90 80 54 18 350 340 346 286 205 207 226 232 240 241 238 229 223 222
201 203 202 192 176 165 137 125 115 172 218 241 215 210 249 191 188 176 165 152 144 135 124 118 113 112 103 94 69 31 6 355 356 344 310 253 248 250 259 263 257 249 239 228
147 180 166 144 140 147 165 151 153 172 201 232 208 206 247 165 152 144 140 135 132 135 141 141 139 134 119 108 95 63 38 8 359 342 320 298 276 263 254 257 260 263 255 243
162 162 169 165 166 168 187 192 181 182 192 204 188 213 134 94 101 111 118 122 130 139 130 123 116 109 105 97 80 58 43 25 17 6 343 334 323 297 282 276 273 271 265 255
161 128 124 136 138 156 170 207 289 332 259 195 204 184 103 116 119 125 133 140 148 137 124 118 108 96 88 80 65 50 39 34 27 13 3 358 351 339 313 303 299 292 292 294
114 118 129 123 117 26 237 168 157 189 215 238 203 189 179 169 167 162 157 155 143 131 123 114 104 93 83 76 64 49 41 39 29 18 12 10 2 354 345 344 336 328 327 337
120 119 132 152 188 178 169 182 203 222 274 272 237 135 49 164 164 162 153 137 127 124 119 112 105 96 89 77 63 51 41 39 30 25 23 19 14 7 3 7 9 14 18 22
139 123 134 151 132 284 206 202 192 195 242 230 266 348 0 137 141 141 131 120 120 119 113 112 111 103 91 77 63 52 43 41 32 27 33 30 24 23 28 30 27 31 38 41
126 135 129 146 171 196 216 218 219 221 338 270 250 133 54 111 125 126 125 126 130 133 130 123 114 104 89 75 64 57 54 45 35 34 42 43 37 39 40 37 37 44 50 52
321 205 209 180 160 164 189 199 205 191 196 239 226 153 154 147 143 142 147 151 150 141 136 131 116 103 95 79 67 64 58 47 43 48 53 51 47 47 48 47 47 50 56 60
304 287 122 55 85 158 187 193 199 206 216 228 240 155 168 170 167 161 156 153 153 143 141 136 127 116 109 95 82 73 67 55 56 62 62 59 57 55 56 56 55 57 61 65
281 246 120 168 181 197 226 221 210 214 227 240 262 280 150 142 147 157 172 176 178 164 151 140 132 129 122 111 98 89 79 69 72 73 69 66 66 65 63 62 63 65 65 66
246 227 219 203 153 225 244 223 214 211 211 218 229 227 176 172 178 183 191 178 166 150 142 139 137 129 120 115 109 107 98 85 81 79 74 73 76 75 71 73 71 69 70 71
269 247 231 218 181 236 207 48 180 209 217 215 221 198 148 152 142 118 119 139 128 123 126 125 124 120 116 113 109 103 98 95 93 87 84 84 85 86 84 81 78 76 75 76
293 253 239 233 247 254 168 137 131 177 219 208 211 214 183 128 109 176 86 83 92 103 112 115 117 120 117 121 122 113 107 102 96 91 89 92 97 98 93 88 83 82 84 82
278 283 265 239 261 280 98 108 72 167 199 93 149 170 158 146 198 162 102 91 88 90 99 106 109 115 122 125 123 119 117 110 104 100 97 98 101 103 100 98 96 93 94 95
194 216 232 243 250 286 107 138 153 200 132 89 87 91 92 107 96 116 107 101 106 104 110 116 122 125 126 124 125 124 118 115 113 110 105 102 102 105 106 102 99 100 97 93
190 197 205 211 228 236 135 145 136 92 92 80 70 69 72 71 82 101 114 123 126 126 133 136 135 128 122 126 131 129 128 125 121 119 114 110 110 113 116 114 109 107 107 103
197 210 206 196 186 115 113 96 90 74 75 64 60 59 59 59 127 137 153 156 153 154 154 149 145 137 134 133 135 137 138 135 130 125 122 122 119 118 124 126 129 126 117 113
204 182 266 281 186 150 144 120 101 79 67 54 47 37 23 342 328 180 185 173 166 164 161 158 156 153 154 146 139 140 141 141 137 135 135 137 135 133 125 119 123 120 114 111
265 178 232 249 234 154 143 116 97 80 65 51 39 26 6 337 307 270 231 196 179 171 164 165 168 168 163 155 151 147 149 148 146 146 149 152 147 138 123 101 87 104 87 118
223 207 219 239 20 108 108 88 75 72 57 35 7 343 336 313 288 273 245 205 177 172 170 172 176 173 164 160 159 159 159 158 158 158 159 155 149 143 137 128 99 85 105 96
Height
1455 1459 1457 1457 1459 1459 1459 1464 1466 1466 1464 1470 1473 1475 1474 1473 1474 1476 1478 1479 1481 1483 1485 1487 1489 1492 1494 1496 1499 1501 1503 1505 1507 1509 1511 1513 1515 1518 1520 1521 1523 1524 1525 1527
1457 1456 1453 1455 1457 1459 1459 1461 1462 1462 1462 1467 1471 1471 1469 1468 1470 1472 1474 1476 1477 1479 1481 1483 1486 1488 1490 1492 1495 1497 1499 1501 1503 1505 1507 1509 1511 1513 1515 1517 1518 1520 1521 1522
1453 1452 1452 1454 1456 1459 1460 1461 1460 1462 1464 1467 1471 1472 1466 1463 1465 1467 1470 1472 1474 1476 1478 1480 1482 1484 1486 1488 1490 1493 1495 1497 1499 1501 1503 1505 1507 1508 1510 1511 1513 1514 1515 1516
1453 1451 1452 1454 1456 1458 1461 1457 1458 1461 1469 1473 1473 1478 1461 1458 1460 1462 1465 1468 1470 1473 1475 1477 1479 1480 1482 1484 1486 1488 1491 1493 1495 1497 1498 1500 1501 1502 1504 1506 1507 1508 1509 1510
1452 1450 1450 1453 1454 1456 1459 1457 1460 1463 1468 1471 1469 1475 1459 1449 1457 1458 1461 1464 1467 1470 1472 1474 1475 1477 1479 1480 1482 1484 1486 1488 1490 1492 1493 1495 1496 1497 1499 1500 1501 1502 1503 1504
1450 1450 1450 1450 1454 1457 1459 1462 1466 1468 1472 1479 1468 1470 1460 1450 1450 1453 1457 1461 1464 1467 1470 1471 1473 1475 1476 1477 1479 1481 1482 1484 1486 1487 1489 1490 1491 1492 1493 1494 1495 1496 1497 1497
1451 1451 1451 1452 1457 1461 1462 1468 1475 1478 1480 1475 1458 1460 1455 1443 1443 1449 1455 1460 1464 1466 1468 1470 1472 1473 1473 1474 1476 1477 1479 1480 1481 1483 1484 1485 1486 1487 1487 1488 1489 1490 1490 1491
1450 1452 1451 1453 1455 1459 1461 1464 1468 1471 1473 1464 1454 1457 1450 1445 1446 1450 1456 1460 1464 1466 1468 1469 1470 1471 1472 1472 1474 1475 1476 1477 1478 1478 1479 1480 1481 1481 1482 1482 1483 1483 1484 1485
1444 1450 1451 1453 1454 1456 1461 1463 1461 1466 1463 1464 1459 1450 1454 1449 1451 1454 1457 1461 1464 1466 1467 1469 1469 1470 1471 1471 1472 1473 1473 1474 1474 1475 1475 1476 1476 1476 1476 1477 1477 1477 1478 1478
1442 1450 1453 1455 1456 1458 1458 1458 1464 1467 1465 1462 1452 1449 1452 1453 1454 1455 1458 1460 1463 1465 1467 1468 1468 1469 1469 1470 1470 1471 1471 1471 1471 1472 1472 1472 1472 1472 1472 1472 1472 1472 1472 1472
1441 1450 1455 1456 1457 1458 1461 1461 1461 1461 1459 1462 1457 1453 1441 1445 1449 1453 1456 1459 1462 1464 1466 1467 1467 1468 1468 1468 1468 1469 1469 1469 1469 1469 1468 1468 1468 1468 1468 1467 1467 1467 1467 1467
1439 1447 1454 1455 1455 1454 1455 1456 1458 1463 1460 1457 1461 1459 1442 1444 1448 1452 1456 1459 1461 1463 1464 1466 1466 1467 1467 1467 1467 1467 1466 1466 1466 1466 1465 1465 1465 1464 1464 1463 1463 1463 1463 1463
1439 1445 1454 1458 1460 1458 1456 1455 1454 1456 1461 1459 1460 1459 1445 1446 1449 1453 1456 1459 1461 1462 1463 1464 1465 1465 1465 1465 1465 1465 1464 1464 1464 1463 1463 1463 1462 1462 1461 1461 1460 1460 1460 1459
1440 1442 1446 1449 1446 1449 1452 1452 1453 1457 1463 1458 1453 1453 1450 1450 1451 1454 1456 1458 1459 1461 1462 1463 1463 1463 1463 1463 1463 1462 1462 1462 1462 1461 1461 1460 1460 1459 1459 1458 1458 1458 1458 1457
1440 1442 1441 1441 1440 1442 1445 1447 1450 1453 1453 1455 1448 1447 1448 1449 1451 1453 1455 1456 1458 1459 1460 1461 1461 1461 1461 1461 1461 1461 1460 1460 1460 1460 1459 1459 1458 1458 1458 1457 1457 1457 1457 1456
1441 1442 1441 1443 1441 1442 1444 1444 1445 1448 1449 1448 1448 1448 1445 1447 1449 1451 1453 1455 1456 1457 1458 1459 1459 1459 1459 1459 1459 1459 1459 1459 1458 1458 1458 1457 1457 1457 1457 1457 1457 1457 1456 1456
1441 1442 1444 1445 1442 1444 1448 1440 1441 1442 1442 1445 1448 1447 1445 1447 1448 1450 1452 1453 1454 1455 1456 1456 1457 1457 1457 1457 1457 1457 1457 1457 1457 1457 1457 1457 1457 1457 1457 1457 1457 1457 1456 1456
1441 1442 1445 1446 1447 1451 1441 1434 1434 1437 1439 1440 1441 1442 1443 1445 1447 1449 1450 1451 1452 1453 1453 1454 1454 1454 1455 1455 1455 1455 1456 1456 1456 1456 1456 1457 1457 1457 1457 1457 1457 1457 1457 1457
1441 1442 1445 1447 1446 1440 1437 1435 1435 1437 1438 1437 1439 1441 1443 1444 1446 1448 1448 1449 1450 1451 1451 1452 1452 1452 1452 1453 1453 1454 1454 1455 1455 1456 1456 1456 1457 1457 1457 1457 1457 1457 1458 1458
1441 1442 1446 1445 1447 1443 1439 1436 1435 1438 1440 1437 1437 1440 1442 1444 1448 1448 1447 1448 1448 1449 1449 1449 1450 1450 1450 1451 1452 1453 1453 1454 1455 1455 1456 1456 1457 1457 1458 1458 1458 1458 1458 1459
1445 1445 1447 1446 1446 1440 1436 1436 1437 1443 1442 1439 1439 1440 1442 1443 1446 1447 1446 1446 1447 1447 1447 1447 1448 1448 1449 1450 1451 1451 1452 1453 1454 1455 1456 1457 1457 1458 1458 1458 1459 1459 1459 1460
1441 1443 1444 1443 1446 1446 1437 1436 1439 1441 1439 1440 1440 1441 1442 1443 1444 1444 1445 1445 1445 1445 1445 1445 1446 1447 1448 1448 1449 1450 1451 1453 1454 1455 1456 1457 1458 1458 1459 1459 1460 1460 1461 1461
1436 1437 1437 1438 1441 1437 1436 1437 1438 1439 1440 1441 1441 1442 1442 1442 1443 1443 1443 1443 1443 1443 1443 1444 1445 1445 1446 1447 1448 1449 1451 1452 1453 1455 1456 1457 1458 1458 1459 1460 1460 1461 1461 1461
1433 1433 1434 1435 1434 1434 1436 1437 1438 1439 1440 1440 1441 1441 1441 1441 1441 1441 1441 1441 1441 1441 1441 1442 1443 1444 1445 1446 1447 1448 1450 1451 1453 1454 1455 1457 1458 1458 1459 1460 1461 1461 1461 1462
1433 1433 1434 1434 1433 1433 1435 1436 1437 1438 1439 1439 1440 1440 1440 1440 1439 1439 1439 1439 1439 1439 1439 1440 1441 1442 1443 1444 1446 1447 1449 1451 1452 1454 1455 1456 1458 1459 1459 1460 1461 1461 1461 1462
1432 1433 1434 1434 1433 1433 1435 1435 1437 1437 1438 1438 1438 1438 1438 1437 1437 1437 1436 1436 1436 1436 1437 1438 1439 1440 1441 1442 1444 1446 1448 1449 1451 1453 1454 1456 1457 1458 1459 1460 1460 1461 1461 1461